Location: Newark
(45.2862°N, 9.8850°E)
Time: 16:39:45
(UTC+00:00)

ISS - Visible Passes

Search period start: 25 January 2021 00:00
Search period end: 04 February 2021 00:00
Orbit: 418 x 421 km, 51.6° (Epoch: 25 January)

Date Brightness Start Highest point End Pass type
(mag) Time Alt. Az. Time Alt. Az. Time Alt. Az.
25 Jan -3.1 16:57:30 10° W 17:00:48 49° NNW 17:04:02 10° NE visible
25 Jan -1.6 18:35:11 10° WNW 18:37:00 22° NW 18:37:00 22° NW visible
26 Jan -2.3 17:47:36 10° WNW 17:50:36 28° N 17:51:35 24° NNE visible
27 Jan -2.5 17:00:00 10° WNW 17:03:04 31° NNW 17:06:09 10° NE visible
27 Jan -1.6 18:37:30 10° NW 18:39:07 21° NNW 18:39:07 21° NNW visible
28 Jan -2.4 17:50:01 10° WNW 17:52:58 27° N 17:53:41 25° NNE visible
29 Jan -2.3 17:02:28 10° WNW 17:05:24 27° N 17:08:16 10° ENE visible
29 Jan -1.8 18:39:33 10° NW 18:41:15 24° NW 18:41:15 24° NW visible
30 Jan -2.8 17:52:09 10° NW 17:55:16 33° NNE 17:55:52 30° NE visible
31 Jan -2.5 17:04:41 10° NW 17:07:42 29° N 17:10:32 11° ENE visible
31 Jan -2.2 18:41:29 10° WNW 18:43:31 33° NW 18:43:31 33° NW visible
01 Feb -3.5 17:54:04 10° NW 17:57:25 54° NNE 17:58:16 40° ENE visible
01 Feb -0.2 19:31:08 10° W 19:31:15 11° W 19:31:15 11° W visible
02 Feb -3.1 17:06:39 10° NW 17:09:53 40° NNE 17:13:05 10° E visible
02 Feb -2.4 18:43:30 10° WNW 18:46:06 38° WSW 18:46:06 38° WSW visible
03 Feb -3.6 17:55:58 10° WNW 17:59:21 70° SSW 18:01:05 26° SE visible
